Location: ???????
(54.9996°N, 37.9529°E)
Time: 14:17:04
(UTC+00:00)

Cosmos 1726 - Pass Details

Date: 14 April 2024
Orbit: 393 x 396 km, 82.5° (Epoch: 18 May)

Event Time Altitude Azimuth Distance (km) Brightness Sun altitude
Rises 00:41:02 0° 339° (NNW) 2,353 5.8 -14.0°
Reaches altitude 10° 00:43:14 10° 327° (NNW) 1,491 4.6 -13.8°
Maximum altitude 00:46:01 27° 268° (W) 840 2.8 -13.5°
Enters shadow 00:46:39 25° 247° (WSW) 884 2.8 -13.4°
